Location: Blairvadach
(56.2780°N, 6.9720°W)
Time: 09:24:23
(UTC+01:00)

Envisat - Pass Details

Date: 18 February 2019
Orbit: 764 x 766 km, 98.1° (Epoch: 20 October)

Event Time Altitude Azimuth Distance (km) Brightness Sun altitude
Rises 20:07:28 0° 201° (SSW) 3,224 6.4 -21.4°
Reaches altitude 10° 20:10:10 10° 215° (SW) 2,302 5.7 -21.8°
Maximum altitude 20:14:18 25° 270° (W) 1,525 5.3 -22.3°
Drops below altitude 10° 20:18:28 10° 325° (NW) 2,315 6.1 -22.9°
Sets 20:21:12 0° 339° (NNW) 3,247 6.7 -23.2°
